Location: Bessat
(45.8735°N, 1.9924°E)
Time: 06:56:04
(UTC+00:00)

COSMOS 2406 - Pass Details

Date: 11 May 2021
Orbit: 844 x 862 km, 71.0° (Epoch: 20 June)

Event Time Altitude Azimuth Distance (km) Brightness Sun altitude
Rises 19:58:01 0° 338° (NNW) 3,414 7.4 -7.6°
Reaches altitude 10° 20:00:44 10° 348° (NNW) 2,476 6.4 -7.9°
Maximum altitude 20:05:51 33° 53° (NE) 1,380 4.2 -8.7°
Enters shadow 20:10:44 11° 116° (ESE) 2,402 4.9 -9.3°
